Overview Statistics Trail Chart Weather Telemetry Raw packets
 

This is the latest recevied weather packets stored in our database for station/object DG9MHV-10. If no packets are shown the sender has not sent any weather packets the latest 10 day(s).

<< 1 2 3 4 5 >>
Time Temp. Humidity Pressure Rain* Wind** Luminosity Snow
1788579533 17.22° C 100% 1018.4 hPa - - - -
1788578633 17.78° C 100% 1018.2 hPa - - - -
1788577733 17.78° C 100% 1017.8 hPa - - - -
1788576833 17.22° C 100% 1017.5 hPa - - - -
1788575933 17.78° C 100% 1017.2 hPa - - - -
1788575033 18.33° C 100% 1016.9 hPa - - - -
1788574133 18.33° C 100% 1016.8 hPa - - - -
1788573236 19.44° C 100% 1016.7 hPa - - - -
1788572333 19.44° C 100% 1016 hPa - - - -
1788571432 19.44° C 100% 1015.7 hPa - - - -
1788570532 19.44° C 100% 1015.6 hPa - - - -
1788569632 19.44° C 100% 1015.5 hPa - - - -
1788568732 20° C 100% 1015.3 hPa - - - -
1788567832 20° C 100% 1015.2 hPa - - - -
1788566932 20° C 100% 1015 hPa - - - -
1788566032 20.56° C 100% 1015 hPa - - - -
1788565132 20.56° C 100% 1015.1 hPa - - - -
1788564232 20.56° C 100% 1014.9 hPa - - - -
1788563332 20.56° C 100% 1014.9 hPa - - - -
1788562432 20.56° C 100% 1014.8 hPa - - - -
1788561532 21.11° C 100% 1014.7 hPa - - - -
1788560632 21.67° C 100% 1014.4 hPa - - - -
1788559731 21.67° C 100% 1014.5 hPa - - - -
1788558831 22.22° C 100% 1014.3 hPa - - - -
1788557931 22.22° C 100% 1014.3 hPa - - - -

* Rain since midnight (hover to see other rain measurements)
** Current wind speed in m/s (hover to see current wind gust speed)